User: anonymous   Login
Location: Perryvale
(54.4667°N, 113.3833°W)
Time: 14:30:12
(UTC+00:00)
Language:

deb Explorer IX - Orbit

View from above orbital plane
View from above orbital plane
View from above satellite
View from above satellite

Ground track
Ground track

The orbit data is extracted from the following two-line orbital elements,

1    85U 61004C   24139.13730531  .00047355  00000-0  63172-2 0  9991
2    85  38.7398 169.1597 0268418 103.7425 259.3358 14.56848828135965
Epoch (UTC): 18 May 2024 03:17:43
Eccentricity: 0.0268418
inclination: 38.7398°
perigee height: 513 km
apogee height: 893 km
right ascension of ascending node: 169.1597°
argument of perigee: 103.7425°
revolutions per day: 14.56848828
mean anomaly at epoch: 259.3358°
orbit number at epoch: 13596

The dashed part of the orbit path shows where the satellite is in the earth's shadow,  

DLR